| time (UTC) | temp F | wind direction | speed MPH | gust MPH | rain 1hr in | rain 24hr in | rain mn in | humidity % | barometer mb |
| 20260504004517 | 49 | 0.0 | 0.0 | 0.00 | 0.00 | 0.00 | 82 | 1002.4 | |
| 20260504003018 | 50 | 0.0 | 0.0 | 0.00 | 0.00 | 0.00 | 84 | 1002.6 | |
| 20260504001517 | 50 | 0.0 | 0.0 | 0.00 | 0.00 | 0.00 | 84 | 1002.7 | |
| 20260504000018 | 50 | 0.0 | 0.0 | 0.00 | 0.00 | 0.00 | 85 | 1002.7 | |
| 20260503234517 | 51 | 0.0 | 0.0 | 0.00 | 0.00 | 0.00 | 86 | 1002.7 | |
| 20260503233018 | 51 | 0.0 | 0.0 | 0.00 | 0.00 | 0.00 | 88 | 1002.8 | |
| 20260503231517 | 51 | 0.0 | 0.0 | 0.00 | 0.00 | 0.00 | 91 | 1002.9 | |
| 20260503230017 | 51 | 0.0 | 0.0 | 0.00 | 0.00 | 0.00 | 94 | 1002.9 | |
| 20260503224517 | 52 | 0.0 | 0.0 | 0.00 | 0.00 | 0.00 | 97 | 1003.0 | |
| 20260503223018 | 52 | 0.0 | 0.0 | 0.00 | 0.00 | 0.00 | 99 | 1003.0 | |
| 20260503221518 | 52 | 0.0 | 0.0 | 0.00 | 0.00 | 0.00 | 10 | 1003.0 | |
| 20260503220017 | 52 | 0.0 | 0.0 | 0.00 | 0.00 | 0.00 | 10 | 1003.1 | |
| 20260503214517 | 52 | 0.0 | 0.0 | 0.00 | 0.00 | 0.00 | 10 | 1003.1 | |
| 20260503213019 | 52 | 0.0 | 0.0 | 0.00 | 0.00 | 0.00 | 10 | 1003.2 | |
| 20260503211518 | 52 | 0.0 | 0.0 | 0.00 | 0.00 | 0.00 | 10 | 1003.1 | |
| 20260503210017 | 52 | 0.0 | 0.0 | 0.00 | 0.00 | 0.00 | 10 | 1003.1 | |
| 20260503204518 | 52 | 0.0 | 0.0 | 0.00 | 0.00 | 0.00 | 10 | 1003.1 | |
| 20260503203018 | 53 | 0.0 | 0.0 | 0.00 | 0.00 | 0.00 | 10 | 1003.2 | |
| 20260503201518 | 53 | 0.0 | 0.0 | 0.00 | 0.00 | 0.00 | 10 | 1003.2 | |
| 20260503200018 | 53 | 0.0 | 0.0 | 0.00 | 0.00 | 0.00 | 99 | 1003.3 | |
| 20260503194518 | 53 | 0.0 | 0.0 | 0.00 | 0.00 | 0.00 | 98 | 1003.3 | |
| 20260503193017 | 54 | 0.0 | 0.0 | 0.00 | 0.00 | 0.00 | 96 | 1003.4 | |
| 20260503191518 | 54 | 0.0 | 0.0 | 0.00 | 0.00 | 0.00 | 94 | 1003.4 | |
| 20260503190023 | 54 | 0.0 | 0.0 | 0.00 | 0.00 | 0.00 | 93 | 1003.4 | |
| 20260503184518 | 55 | 0.0 | 0.0 | 0.00 | 0.00 | 0.00 | 91 | 1003.5 | |
| 20260503183017 | 55 | 0.0 | 0.0 | 0.00 | 0.00 | 0.00 | 89 | 1003.3 | |
| 20260503181518 | 56 | 0.0 | 0.0 | 0.00 | 0.00 | 0.00 | 87 | 1003.3 | |
| 20260503180018 | 56 | 0.0 | 0.0 | 0.00 | 0.00 | 0.00 | 85 | 1003.2 | |
| 20260503174524 | 57 | 0.0 | 0.0 | 0.00 | 0.00 | 0.00 | 83 | 1003.1 | |
| 20260503173018 | 58 | 0.0 | 0.0 | 0.00 | 0.00 | 0.00 | 80 | 1003.1 | |
| 20260503171519 | 59 | 0.0 | 0.0 | 0.00 | 0.00 | 0.00 | 77 | 1003.1 | |
| 20260503081518 | 56 | 0.0 | 0.0 | 0.00 | 0.00 | 0.00 | 10 | 1003.4 | |
| 20260503054518 | 51 | 0.0 | 0.0 | 0.00 | 0.00 | 0.00 | 10 | 1002.2 | |
| 20260503053018 | 50 | 0.0 | 0.0 | 0.00 | 0.00 | 0.00 | 10 | 1001.9 | |
| 20260503051518 | 49 | 0.0 | 0.0 | 0.00 | 0.00 | 0.00 | 10 | 1001.8 | |
| 20260503050018 | 47 | 0.0 | 0.0 | 0.00 | 0.00 | 0.00 | 10 | 1001.6 | |
| 20260503044518 | 46 | 0.0 | 0.0 | 0.00 | 0.00 | 0.00 | 10 | 1001.7 | |
| 20260503043018 | 44 | 0.0 | 0.0 | 0.00 | 0.00 | 0.00 | 10 | 1001.7 | |
| 20260503041518 | 44 | 0.0 | 0.0 | 0.00 | 0.00 | 0.00 | 10 | 1001.6 | |
| 20260503040018 | 43 | 0.0 | 0.0 | 0.00 | 0.00 | 0.00 | 10 | 1001.3 | |
| 20260503034517 | 41 | 0.0 | 0.0 | 0.00 | 0.00 | 0.00 | 10 | 1001.2 | |
| 20260503033018 | 39 | 0.0 | 0.0 | 0.00 | 0.00 | 0.00 | 10 | 1001.0 | |
| 20260503031518 | 39 | 0.0 | 0.0 | 0.00 | 0.00 | 0.00 | 10 | 1001.2 | |
| 20260503030018 | 38 | 0.0 | 0.0 | 0.00 | 0.00 | 0.00 | 10 | 1001.2 | |
| 20260503024517 | 38 | 0.0 | 0.0 | 0.00 | 0.00 | 0.00 | 10 | 1001.3 | |
| 20260503023023 | 38 | 0.0 | 0.0 | 0.00 | 0.00 | 0.00 | 10 | 1001.0 | |
| 20260503021517 | 38 | 0.0 | 0.0 | 0.00 | 0.00 | 0.00 | 10 | 1001.4 | |
| 20260503020017 | 38 | 0.0 | 0.0 | 0.00 | 0.00 | 0.00 | 10 | 1001.1 | |
| 20260503014517 | 39 | 0.0 | 0.0 | 0.00 | 0.00 | 0.00 | 10 | 1001.1 | |
| 20260503013019 | 39 | 0.0 | 0.0 | 0.00 | 0.00 | 0.00 | 10 | 1001.1 | |
| 20260503011518 | 39 | 0.0 | 0.0 | 0.00 | 0.00 | 0.00 | 10 | 1001.3 | |
| 20260503010017 | 40 | 0.0 | 0.0 | 0.00 | 0.00 | 0.00 | 10 | 1001.1 |